• In Deutschland
  • Länderverzeichnis
  • Für 7 Tage
  • Wassertemperatur
  • Satellitenkarten
  • Wetterkarte
  • Widgets
  • user-avatar
    Anmelden

    Stündliche Wetter Cairns

    Heute, 17 Juli, Dienstag

    Zeit Temperatur Niederschläge Wind Luftdruck Luftfeuchtigkeit
    00:00 +20°C° 0 mm 3 m/S 760 mmHg 95%
    01:00 +19°C° 0 mm 2 m/S 760 mmHg 95%
    02:00 +19°C° 0 mm 3 m/S 760 mmHg 93%
    03:00 +19°C° 0 mm 3 m/S 760 mmHg 90%
    04:00 +18°C° 0 mm 3 m/S 760 mmHg 86%
    05:00 +18°C° 0 mm 3 m/S 760 mmHg 85%
    06:00 +18°C° 0 mm 3 m/S 760 mmHg 83%
    07:00 +18°C° 0 mm 3 m/S 761 mmHg 82%
    08:00 +20°C° 0 mm 4 m/S 761 mmHg 76%
    09:00 +23°C° 0 mm 4 m/S 761 mmHg 69%
    10:00 +27°C° 0 mm 4 m/S 761 mmHg 62%
    11:00 +28°C° 0 mm 4 m/S 761 mmHg 61%
    12:00 +29°C° 0 mm 4 m/S 761 mmHg 59%
    13:00 +29°C° 0 mm 5 m/S 761 mmHg 58%
    14:00 +29°C° 0 mm 5 m/S 760 mmHg 61%
    15:00 +28°C° 0 mm 5 m/S 760 mmHg 64%
    16:00 +27°C° 0 mm 5 m/S 760 mmHg 67%
    17:00 +26°C° 0 mm 4 m/S 760 mmHg 76%
    18:00 +23°C° 0 mm 4 m/S 760 mmHg 84%
    19:00 +21°C° 0 mm 4 m/S 761 mmHg 93%
    20:00 +21°C° 0 mm 4 m/S 761 mmHg 94%
    21:00 +21°C° 0 mm 4 m/S 761 mmHg 94%
    22:00 +20°C° 0 mm 4 m/S 761 mmHg 95%
    23:00 +20°C° 0 mm 4 m/S 761 mmHg 96%

    Morgen, 18 Juli, Mittwoch

    Zeit Temperatur Niederschläge Wind Luftdruck Luftfeuchtigkeit
    00:00 +20°C° 0 mm 4 m/S 761 mmHg 96%
    01:00 +20°C° 0 mm 4 m/S 761 mmHg 96%
    02:00 +20°C° 0,1 mm 4 m/S 761 mmHg 96%
    03:00 +21°C° 0,1 mm 4 m/S 761 mmHg 97%
    04:00 +21°C° 0,1 mm 3 m/S 761 mmHg 97%
    05:00 +21°C° 0,2 mm 4 m/S 761 mmHg 97%
    06:00 +21°C° 0,2 mm 4 m/S 761 mmHg 97%
    07:00 +21°C° 0,2 mm 4 m/S 761 mmHg 98%
    08:00 +22°C° 0,2 mm 4 m/S 762 mmHg 93%
    09:00 +25°C° 0,2 mm 4 m/S 762 mmHg 88%
    10:00 +26°C° 0,2 mm 5 m/S 762 mmHg 82%
    11:00 +26°C° 0,3 mm 5 m/S 762 mmHg 84%
    12:00 +26°C° 0,3 mm 5 m/S 761 mmHg 86%
    13:00 +25°C° 0,3 mm 5 m/S 761 mmHg 87%
    14:00 +25°C° 0,2 mm 5 m/S 761 mmHg 89%
    15:00 +23°C° 0,2 mm 5 m/S 761 mmHg 90%
    16:00 +23°C° 0,2 mm 5 m/S 760 mmHg 92%
    17:00 +23°C° 0,2 mm 5 m/S 761 mmHg 93%
    18:00 +22°C° 0,2 mm 5 m/S 761 mmHg 94%
    19:00 +22°C° 0,2 mm 5 m/S 761 mmHg 96%
    20:00 +22°C° 0,1 mm 5 m/S 762 mmHg 95%
    21:00 +22°C° 0,1 mm 5 m/S 762 mmHg 95%
    22:00 +22°C° 0,1 mm 5 m/S 763 mmHg 94%
    23:00 +21°C° 0,1 mm 5 m/S 762 mmHg 94%

    übermorgen, 19 Juli, Donnerstag

    Zeit Temperatur Niederschläge Wind Luftdruck Luftfeuchtigkeit
    00:00 +21°C° 0,1 mm 5 m/S 762 mmHg 94%
    01:00 +21°C° 0,1 mm 5 m/S 762 mmHg 94%
    02:00 +21°C° 0,1 mm 5 m/S 762 mmHg 95%
    03:00 +21°C° 0,1 mm 5 m/S 761 mmHg 95%
    04:00 +20°C° 0,1 mm 5 m/S 761 mmHg 96%
    05:00 +20°C° 0 mm 5 m/S 761 mmHg 96%
    06:00 +20°C° 0 mm 5 m/S 762 mmHg 96%
    07:00 +20°C° 0 mm 4 m/S 762 mmHg 96%
    08:00 +21°C° 0 mm 5 m/S 762 mmHg 91%
    09:00 +22°C° 0 mm 5 m/S 762 mmHg 86%
    10:00 +23°C° 0 mm 5 m/S 763 mmHg 82%
    11:00 +25°C° 0 mm 5 m/S 762 mmHg 77%
    12:00 +26°C° 0 mm 5 m/S 762 mmHg 72%
    13:00 +27°C° 0 mm 5 m/S 761 mmHg 68%
    14:00 +27°C° 0 mm 5 m/S 761 mmHg 68%
    15:00 +27°C° 0 mm 5 m/S 760 mmHg 69%
    16:00 +27°C° 0 mm 4 m/S 760 mmHg 69%
    17:00 +25°C° 0 mm 4 m/S 760 mmHg 76%
    18:00 +23°C° 0 mm 4 m/S 760 mmHg 84%
    19:00 +21°C° 0 mm 4 m/S 761 mmHg 91%
    20:00 +21°C° 0 mm 3 m/S 761 mmHg 93%
    21:00 +20°C° 0 mm 3 m/S 762 mmHg 94%
    22:00 +20°C° 0 mm 3 m/S 762 mmHg 96%
    23:00 +20°C° 0 mm 3 m/S 762 mmHg 96%

    20 Juli, Freitag

    Zeit Temperatur Niederschläge Wind Luftdruck Luftfeuchtigkeit
    00:00 +20°C° 0 mm 3 m/S 762 mmHg 97%
    01:00 +20°C° 0 mm 2 m/S 762 mmHg 97%
    02:00 +20°C° 0 mm 2 m/S 762 mmHg 97%
    03:00 +20°C° 0 mm 2 m/S 761 mmHg 97%
    04:00 +19°C° 0 mm 2 m/S 761 mmHg 97%
    05:00 +19°C° 0 mm 2 m/S 761 mmHg 97%
    06:00 +19°C° 0 mm 2 m/S 761 mmHg 97%
    07:00 +19°C° 0 mm 2 m/S 761 mmHg 97%
    08:00 +23°C° 0 mm 2 m/S 762 mmHg 86%
    09:00 +25°C° 0 mm 2 m/S 762 mmHg 76%
    10:00 +28°C° 0 mm 2 m/S 762 mmHg 66%
    11:00 +29°C° 0 mm 3 m/S 761 mmHg 63%
    12:00 +30°C° 0 mm 3 m/S 761 mmHg 60%
    13:00 +30°C° 0 mm 3 m/S 760 mmHg 58%
    14:00 +29°C° 0 mm 3 m/S 760 mmHg 63%
    15:00 +29°C° 0 mm 3 m/S 760 mmHg 68%
    16:00 +28°C° 0 mm 3 m/S 759 mmHg 73%
    17:00 +26°C° 0 mm 3 m/S 760 mmHg 81%
    18:00 +25°C° 0 mm 2 m/S 760 mmHg 88%
    19:00 +23°C° 0 mm 2 m/S 761 mmHg 95%
    20:00 +23°C° 0 mm 2 m/S 761 mmHg 96%
    21:00 +23°C° 0 mm 1 m/S 762 mmHg 96%
    22:00 +23°C° 0 mm 1 m/S 762 mmHg 97%
    23:00 +23°C° 0 mm 1 m/S 762 mmHg 97%

    21 Juli, Samstag

    Zeit Temperatur Niederschläge Wind Luftdruck Luftfeuchtigkeit
    00:00 +23°C° 0 mm 1 m/S 762 mmHg 97%
    01:00 +23°C° 0 mm 1 m/S 762 mmHg 97%
    02:00 +22°C° 0 mm 1 m/S 762 mmHg 96%
    03:00 +21°C° 0 mm 2 m/S 761 mmHg 95%
    04:00 +21°C° 0 mm 2 m/S 761 mmHg 94%
    05:00 +20°C° 0 mm 3 m/S 762 mmHg 91%
    06:00 +19°C° 0 mm 3 m/S 762 mmHg 88%
    07:00 +19°C° 0 mm 4 m/S 763 mmHg 85%
    08:00 +21°C° 0 mm 5 m/S 763 mmHg 69%
    09:00 +23°C° 0 mm 5 m/S 763 mmHg 54%
    10:00 +26°C° 0 mm 5 m/S 763 mmHg 39%
    11:00 +27°C° 0 mm 5 m/S 763 mmHg 39%
    12:00 +28°C° 0 mm 5 m/S 762 mmHg 38%
    13:00 +29°C° 0 mm 5 m/S 761 mmHg 38%
    14:00 +29°C° 0 mm 5 m/S 761 mmHg 40%
    15:00 +28°C° 0 mm 5 m/S 761 mmHg 42%
    16:00 +28°C° 0 mm 5 m/S 760 mmHg 44%
    17:00 +26°C° 0 mm 5 m/S 761 mmHg 51%
    18:00 +22°C° 0 mm 5 m/S 761 mmHg 57%
    19:00 +20°C° 0 mm 4 m/S 762 mmHg 64%
    20:00 +19°C° 0 mm 4 m/S 762 mmHg 67%
    21:00 +19°C° 0 mm 4 m/S 762 mmHg 71%
    22:00 +18°C° 0 mm 4 m/S 763 mmHg 74%
    23:00 +18°C° 0,1 mm 4 m/S 762 mmHg 81%

    22 Juli, Sonntag

    Zeit Temperatur Niederschläge Wind Luftdruck Luftfeuchtigkeit
    00:00 +18°C° 0,1 mm 4 m/S 762 mmHg 88%
    01:00 +18°C° 0,1 mm 4 m/S 762 mmHg 94%
    02:00 +19°C° 0,1 mm 4 m/S 762 mmHg 95%
    03:00 +19°C° 0,1 mm 4 m/S 761 mmHg 95%
    04:00 +19°C° 0,1 mm 4 m/S 761 mmHg 96%
    05:00 +19°C° 0,1 mm 4 m/S 762 mmHg 96%
    06:00 +19°C° 0,1 mm 4 m/S 762 mmHg 96%
    07:00 +20°C° 0,1 mm 4 m/S 763 mmHg 96%
    08:00 +21°C° 0 mm 5 m/S 763 mmHg 89%
    09:00 +23°C° 0 mm 5 m/S 763 mmHg 82%
    10:00 +25°C° 0 mm 5 m/S 763 mmHg 75%
    11:00 +26°C° 0 mm 5 m/S 763 mmHg 72%
    12:00 +27°C° 0 mm 5 m/S 762 mmHg 68%
    13:00 +28°C° 0 mm 5 m/S 761 mmHg 64%
    14:00 +27°C° 0 mm 5 m/S 761 mmHg 66%
    15:00 +27°C° 0 mm 5 m/S 761 mmHg 67%
    16:00 +27°C° 0 mm 5 m/S 760 mmHg 69%
    17:00 +25°C° 0 mm 5 m/S 761 mmHg 77%
    18:00 +22°C° 0 mm 5 m/S 761 mmHg 85%
    19:00 +20°C° 0 mm 4 m/S 762 mmHg 93%
    20:00 +20°C° 0 mm 4 m/S 762 mmHg 94%
    21:00 +20°C° 0 mm 4 m/S 762 mmHg 95%
    22:00 +19°C° 0 mm 4 m/S 763 mmHg 96%
    23:00 +19°C° 0 mm 4 m/S 762 mmHg 95%
    Mehr zeigen